Weather History for Logan, UT

Change the Weather History Date:

Monday, August 26, 2013

  Actual Average Record
Temperature  
Mean Temperature 73 °F -  
Max Temperature 81 °F 86 °F 96 °F (1988)
Min Temperature 66 °F 50 °F 36 °F (1992)
Cooling Degree Days 8    
Growing Degree Days 23 (Base 50)    
Moisture  
Dew Point 49 °F    
Average Humidity 42    
Maximum Humidity 55    
Minimum Humidity 31    
Precipitation  
Precipitation 0.00 in - - ()
Sea Level Pressure  
Sea Level Pressure 29.97 in    
Wind  
Wind Speed 4 mph (South)    
Max Wind Speed 15 mph    
Max Gust Speed -    
Visibility 10 miles    
Events      
Averages and records for this station are not official NWS values.
T = Trace of Precipitation, MM = Missing Value Source: NWS Daily Summary

Daily Weather History Graph

Daily Weather History Graph

Search for Another Location

Airport:

Trip Planner

Search our weather history database for the weather conditions in past years. The results will help you decide how hot, cold, wet, or windy it might be!

Date:

Astronomy

Aug. 26, 2013 Rise Set
Actual Time 6:47 AM MDT 8:10 PM MDT
Civil Twilight 6:18 AM MDT 8:38 PM MDT
Nautical Twilight 5:43 AM MDT 9:13 PM MDT
Astronomical Twilight 5:06 AM MDT 9:50 PM MDT
Moon 11:16 PM MDT (8/26) 12:58 PM MDT (8/26)
Length of Visible Light 14h 20m
Length of Day
13h 22m
Waning Gibbous, 66% of the Moon is Illuminated
Aug 26
Waning Gibbous
Aug 28
Last Quarter
Sep 5
New
Sep 12
First Quarter
Sep 19
Full

Hourly Weather History & Observations

Time (MDT) Temp. Dew Point Humidity Pressure Visibility Wind Dir Wind Speed Gust Speed Precip Events Conditions
12:51 AM 68.0 °F 51.1 °F 55% 29.92 in 10.0 mi Calm Calm - N/A   Clear
1:51 AM 69.1 °F 50.0 °F 51% 29.92 in 10.0 mi Calm Calm - N/A   Clear
2:51 AM 68.0 °F 48.9 °F 50% 29.92 in 10.0 mi SE 9.2 mph - N/A   Partly Cloudy
3:51 AM 68.0 °F 51.1 °F 55% 29.94 in 10.0 mi East 4.6 mph - N/A   Clear
4:51 AM 69.1 °F 48.9 °F 49% 29.94 in 10.0 mi SE 5.8 mph - N/A   Clear
5:51 AM 68.0 °F 50.0 °F 52% 29.96 in 10.0 mi Calm Calm - N/A   Clear
6:51 AM 66.9 °F 50.0 °F 54% 29.97 in 10.0 mi Calm Calm - N/A   Partly Cloudy
7:51 AM 70.0 °F 50.0 °F 49% 29.99 in 10.0 mi SSE 5.8 mph - N/A   Clear
8:51 AM 73.9 °F 50.0 °F 43% 30.00 in 10.0 mi South 6.9 mph - N/A   Clear
9:51 AM 75.0 °F 51.1 °F 43% 30.01 in 10.0 mi SE 5.8 mph - N/A   Partly Cloudy
10:51 AM 78.1 °F 48.9 °F 36% 30.01 in 10.0 mi South 6.9 mph - N/A   Clear
11:51 AM 80.1 °F 46.9 °F 31% 30.01 in 10.0 mi South 15.0 mph - N/A   Clear
12:51 PM 79.0 °F 46.9 °F 32% 30.01 in 10.0 mi SSW 9.2 mph - N/A   Clear
1:51 PM 79.0 °F 46.9 °F 32% 30.00 in 10.0 mi SSW 9.2 mph - N/A   Clear
2:51 PM 79.0 °F 46.0 °F 31% 29.99 in 10.0 mi WSW 4.6 mph - N/A   Clear
3:51 PM 80.1 °F 48.0 °F 32% 29.98 in 10.0 mi South 8.1 mph - N/A   Partly Cloudy
4:51 PM 79.0 °F 46.9 °F 32% 29.97 in 10.0 mi South 11.5 mph - N/A   Mostly Cloudy
5:51 PM 79.0 °F 46.0 °F 31% 29.95 in 10.0 mi SSE 4.6 mph - N/A   Clear
6:51 PM 79.0 °F 46.0 °F 31% 29.96 in 10.0 mi SSW 4.6 mph - N/A   Clear
7:51 PM 77.0 °F 50.0 °F 39% 29.94 in 10.0 mi SSE 6.9 mph - N/A   Clear
8:51 PM 75.0 °F 50.0 °F 41% 29.94 in 10.0 mi Calm Calm - N/A   Clear
9:51 PM 70.0 °F 51.1 °F 51% 29.97 in 10.0 mi NE 4.6 mph - N/A   Clear
10:51 PM 71.1 °F 50.0 °F 47% 29.95 in 10.0 mi Calm Calm - N/A   Clear
11:51 PM 69.1 °F 50.0 °F 51% 29.96 in 10.0 mi SSW 3.5 mph - N/A   Clear